Regional Weather Roundup
Issued by NWS

Home | Current Version | Previous Version | Text Only | Print | Product List | Glossary Off
Versions: 1 2 3 4 5 6 7 8 9 10 11 12 13 14 15 16 17 18 19 20 21 22 23 24 25 26 27 28 29 30 31 32 33 34 35 36 37 38 39 40 41 42 43 44 45 46 47 48 49 50

074
ASUS45 KSLC 250910
RWRUT

UTAH REGIONAL WEATHER ROUNDUP
NATIONAL WEATHER SERVICE SALT LAKE CITY UT
300 AM MDT WED MAY 25 2016

UTZ001>011-023>025-251000-

NORTHERN UTAH

CITY           SKY/WX    TMP DP  RH WIND       PRES   REMARKS
BRIGHAM CITY     N/A     47  42  82 CALM      29.96R
HILL AFB       MOCLDY    47  39  73 E6        29.97R
LOGAN          CLOUDY    46  42  86 CALM      29.95S
OGDEN          PTCLDY    49  40  71 S10       29.95R
PROVO AIRPORT  PTCLDY    48  36  61 E6        29.98S
SALT LAKE CITY MOCLDY    53  39  59 SE7       29.96R
VERNAL         CLOUDY    45  31  58 W5        29.98R
WENDOVER       MOCLDY    54  36  50 W9        29.96F
HEBER CITY     MOCLDY    36  34  93 CALM      30.00R
WEST JORDAN    CLOUDY    48  39  71 CALM      29.97S

$$

UTZ012>022-026-027-251000-

SOUTHERN/CENTRAL UTAH

CITY           SKY/WX    TMP DP  RH WIND       PRES   REMARKS
BLANDING       CLOUDY    46  19  34 NW3       30.12S
BRYCE CANYON   CLEAR     28  21  75 W8        30.11F WCI  20
CEDAR CITY     PTCLDY    46  25  43 SE6       30.02S
DELTA          MOCLDY    43  34  70 S8        29.98S
HANKSVILLE     CLEAR     52  27  37 CALM      30.01R
MILFORD        MOCLDY    47  26  44 S9        29.99F
MOAB/CYNLANDS  PTCLDY    54  29  38 W7        29.96R
PRICE          CLEAR     44  27  51 NE7       30.00S
ST GEORGE      MOSUNNY   57  25  28 E7        29.96S

$$

REGIONAL REPORTS     COLORADO/ARIZONA

CITY           SKY/WX    TMP DP  RH WIND       PRES   REMARKS
CRAIG, CO      CLOUDY    46  40  79 CALM      30.05F
GRAND JUNCTION PTCLDY    53  28  38 NE7       29.97R
RIFLE          PTCLDY    56  30  37 W5        29.99R
MONTROSE       CLOUDY    55  18  23 SW8       30.03S
CORTEZ         CLOUDY    55  22  27 S12       30.06S
PAGE, AZ       CLEAR     60  24  25 S6        30.00R
GRAND CANYON   CLEAR     34  16  47 NE6       30.10F WCI  29
KINGMAN        CLEAR     51  22  31 S8        29.97S
FLAGSTAFF      CLEAR     42  18  37 W6        30.12F

$$

REGIONAL REPORTS    NEVADA/IDAHO/WYOMING

CITY           SKY/WX    TMP DP  RH WIND       PRES   REMARKS
LAS VEGAS, NV  PTCLDY    66  32  28 S8        29.87S
ELY            CLEAR     33  31  92 S7        30.04S WCI  27
ELKO           CLOUDY    45  40  82 CALM      30.01S
POCATELLO, ID  CLOUDY    48  44  86 CALM      29.95S
BURLEY         CLOUDY    49  40  71 SW10      29.92R
EVANSTON, WY   CLOUDY    36  32  85 SW8       30.02S WCI  30
ROCK SPRINGS   CLOUDY    40  33  76 CALM      30.01F
KEMMERER         N/A     34  34 100 N5        30.03R WCI  30

$$




USA.gov is the U.S. government's official web portal to all federal, state and local government web resources and services.